Location: Bieg
(49.3499°N, 10.3835°E)
Time: 20:31:22
(UTC+00:00)

Meteor 1-12 Rocket - Pass Details

Date: 23 May 2024
Orbit: 855 x 925 km, 81.2° (Epoch: 23 June)

Event Time Altitude Azimuth Distance (km) Brightness Sun altitude
Rises 00:00:54 0° 345° (NNW) 3,513 8.5 -19.3°
Reaches altitude 10° 00:03:22 10° 342° (NNW) 2,579 7.6 -19.2°
Maximum altitude 00:09:08 60° 264° (W) 1,034 4.5 -19.0°
Enters shadow 00:11:44 33° 199° (SSW) 1,490 4.9 -18.9°
